[[{"header":{"parameterUnit":"m.s-1","parameterCategory":1,"la1":30.2992,"la2":30.254,"lo1":-89.0895,"lo2":-89.0443,"dy":0.0025,"dx":0.0025,"nx":19,"ny":19,"refTime":"2026-03-26T21:00:00:Z","depth":0,"parameterNumber":2,"parameterNumberName":"U-component_of_WINDS"},"data":[0,0,0,1.926,1.9262,1.9387,1.9387,1.9537,1.9538,0,0,0,0,0,0,0,0,0,0,0,1.9214,1.9215,1.926,1.9263,1.9387,1.9387,1.9537,1.9538,0,0,0,0,0,0,0,0,0,0,0,1.9214,1.9215,1.9216,1.9263,1.9386,1.9387,1.9537,1.9447,0,0,0,0,0,0,0,0,0,0,1.9328,1.9276,1.9215,1.9216,1.9264,1.9386,1.9387,1.9443,1.9452,1.9476,0,1.9491,0,1.9517,1.9547,1.9548,0,0,0,1.927,1.9268,1.9309,1.9216,1.9265,1.9386,1.9333,1.9448,1.9459,1.9489,1.9494,1.95,1.9519,1.9548,1.9549,1.9653,1.9653,0,0,1.9263,1.9232,1.9302,1.9316,1.9293,1.9329,1.9336,1.9455,1.946,1.9494,1.9503,1.9522,1.9549,1.955,1.9653,1.9653,0,0,0,1.9239,1.9227,1.9266,1.931,1.9332,1.9332,1.9341,1.9454,1.9469,1.9505,1.9524,1.955,1.9552,1.9653,1.9653,1.9629,0,0,0,1.9235,1.9213,1.9263,1.9245,1.933,1.9394,1.9337,1.9461,1.9476,1.9523,1.955,1.9553,1.9653,1.9653,1.9629,1.9623,0,0,0,1.9209,1.921,1.9225,1.9243,1.9295,1.9393,1.9415,1.9465,1.9487,1.9548,1.9553,1.9653,1.9653,1.963,1.9624,1.9642,0,0,0,1.9174,1.9202,1.9224,1.9263,1.9294,1.9376,1.9415,1.9478,1.9528,1.9551,1.9653,1.9653,1.963,1.9624,1.9642,1.965,1.9651,0,0,1.9192,1.9203,1.9229,1.9252,1.9322,1.936,1.9429,1.9504,1.954,1.9614,1.9617,1.9629,1.9624,1.9642,1.9667,1.9667,0,0,0,1.9224,1.9242,1.9268,1.9312,1.937,1.942,1.9488,1.9517,1.9582,1.957,1.9642,1.964,1.9651,1.9657,1.9657,1.967,1.9654,1.9654,1.9654,1.9205,1.9248,1.9294,1.9352,1.9396,1.9467,1.9508,1.9559,1.959,1.9607,1.9629,1.9638,1.9644,1.9644,1.9657,1.9638,1.9637,1.9637,1.9637,1.9236,1.9268,1.931,1.9369,1.9416,1.9468,1.9539,1.956,1.9617,1.9625,1.9638,1.9642,1.9643,1.9657,1.9636,1.9636,1.9636,1.9637,1.9637,1.9227,1.925,1.9284,1.9355,1.9406,1.9467,1.9519,1.956,1.96,1.9613,1.9641,1.9642,1.9648,1.9624,1.9624,1.9624,1.9624,1.9624,1.9624,1.9204,1.9244,1.9281,1.9347,1.9382,1.9435,1.9509,1.9547,1.9599,1.9625,1.9626,1.9656,1.9635,1.9628,1.9624,1.9624,1.9624,1.9624,1.9624,1.9218,1.9222,1.928,1.9316,1.9398,1.9447,1.95,1.9573,1.961,1.9636,1.9665,1.9642,1.9657,1.9657,1.9652,1.9654,1.9654,1.9654,1.9654,1.921,1.9222,1.9292,1.9347,1.9406,1.946,1.9528,1.9588,1.9651,1.9678,1.9684,1.9681,1.9679,1.9695,1.9695,1.9691,1.9703,1.9703,1.9703,1.9222,1.9241,1.9289,1.9349,1.9417,1.9476,1.9542,1.9606,1.9678,1.9706,1.97,1.9698,1.9694,1.969,1.9715,1.9713,1.9707,0,0]},{"header":{"parameterUnit":"m.s-1","parameterCategory":1,"la1":30.2992,"la2":30.254,"lo1":-89.0895,"lo2":-89.0443,"dy":0.0025,"dx":0.0025,"nx":19,"ny":19,"refTime":"2026-03-26T21:00:00:Z","depth":0,"parameterNumber":3,"parameterNumberName":"V-component_of_WINDS"},"data":[0,0,0,2.8456,2.8459,2.8589,2.859,2.8737,2.8738,0,0,0,0,0,0,0,0,0,0,0,2.841,2.8411,2.8456,2.8459,2.8589,2.859,2.8737,2.8738,0,0,0,0,0,0,0,0,0,0,0,2.8409,2.841,2.8411,2.846,2.8589,2.859,2.8736,2.8644,0,0,0,0,0,0,0,0,0,0,2.8521,2.8471,2.841,2.8411,2.846,2.8589,2.859,2.864,2.865,2.8671,0,2.869,0,2.8717,2.8747,2.8747,0,0,0,2.8464,2.8463,2.8505,2.8412,2.8461,2.8589,2.8532,2.8646,2.8657,2.8684,2.8693,2.8699,2.8719,2.8748,2.8749,2.8857,2.8857,0,0,2.8457,2.8429,2.8498,2.8512,2.8495,2.8528,2.8536,2.8653,2.8659,2.8693,2.8702,2.8721,2.8749,2.875,2.8857,2.8857,0,0,0,2.8433,2.8423,2.8463,2.8506,2.8531,2.8531,2.8541,2.8654,2.867,2.8704,2.8723,2.875,2.8751,2.8856,2.8857,2.8842,0,0,0,2.8429,2.8409,2.846,2.8443,2.8528,2.8595,2.8539,2.8662,2.8676,2.8722,2.875,2.8752,2.8856,2.8857,2.8842,2.8839,0,0,0,2.8404,2.8406,2.8423,2.8442,2.8497,2.8594,2.8616,2.8665,2.8687,2.8748,2.8753,2.8856,2.8856,2.8842,2.8839,2.8858,0,0,0,2.8368,2.8408,2.8422,2.8473,2.8496,2.8585,2.8616,2.8683,2.8733,2.875,2.8856,2.8857,2.8842,2.884,2.8858,2.8869,2.8871,0,0,2.8403,2.8411,2.8444,2.846,2.8539,2.8567,2.8643,2.8716,2.8746,2.8817,2.882,2.8842,2.884,2.8858,2.8894,2.8896,0,0,0,2.8444,2.8467,2.8494,2.8542,2.8598,2.8645,2.8709,2.8735,2.8797,2.8778,2.8855,2.8855,2.8867,2.8873,2.8874,2.8885,2.8859,2.8859,2.8859,2.8452,2.8489,2.8544,2.8596,2.8641,2.8705,2.8743,2.8788,2.8814,2.883,2.8852,2.887,2.8876,2.8877,2.8888,2.8861,2.8861,2.8861,2.8861,2.8503,2.854,2.8571,2.8636,2.8673,2.8726,2.8787,2.8802,2.8855,2.8857,2.887,2.8869,2.8878,2.8889,2.886,2.8861,2.8861,2.8861,2.8861,2.8512,2.8536,2.8567,2.8637,2.8685,2.8736,2.8784,2.8817,2.8848,2.886,2.8884,2.8885,2.8888,2.8869,2.8869,2.8869,2.887,2.887,2.887,2.8507,2.8543,2.8582,2.8643,2.8676,2.8722,2.8784,2.8816,2.8859,2.8879,2.8879,2.89,2.8873,2.8864,2.8871,2.8871,2.887,2.887,2.887,2.8544,2.8541,2.86,2.8633,2.8705,2.8749,2.879,2.8851,2.8882,2.8904,2.8921,2.8896,2.8907,2.8906,2.89,2.8915,2.8915,2.8915,2.8915,2.855,2.8559,2.8625,2.8675,2.8727,2.8769,2.883,2.8876,2.8923,2.8943,2.8946,2.894,2.8937,2.895,2.8948,2.8942,2.8968,2.8968,2.8968,2.8574,2.8589,2.8637,2.8685,2.8743,2.879,2.8848,2.89,2.8953,2.8971,2.8959,2.8957,2.8948,2.8943,2.8961,2.8958,2.8948,0,0]}]]